Tracking 30922 objects as of 2-Jul-2025
HD Live streaming from Space Station
objects crossing your sky now

STARLINK-3877

Track STARLINK-3877 now!
10-day predictions
STARLINK-3877 is classified as:


NORAD ID: 52355
Int'l Code: 2022-045AA
Perigee: 546.3 km
Apogee: 547.5 km
Inclination: 53.2 °
Period: 95.4 minutes
Semi major axis: 6917 km
RCS: Unknown
Launch date: April 29, 2022
Source: United States (US)
Launch site: AIR FORCE EASTERN TEST RANGE (AFETR)
Your satellite tracking list
STARLINK-3303
Track 1 satellite(s)




NASA's NSSDC Master Catalog

Two Line Element Set (TLE):
1 52355U 22045AA  25182.44034413  .00001416  00000-0  10705-3 0  9992
2 52355  53.2167 247.0241 0000928  75.7740 284.3355 15.08836602177852
Source of the keplerian elements: AFSPC